Previsão horária em Bolshie Kirilly

Hoje, 8 Março, Segunda-feira

Tempo Temperatura Precipitação Vento Pressão Humidade
00:00 -10°C° 0 mm 5 m/s 734 mmHg 83%
01:00 -9°C° 0 mm 4 m/s 734 mmHg 86%
02:00 -9°C° 0 mm 4 m/s 734 mmHg 89%
03:00 -10°C° 0 mm 4 m/s 734 mmHg 89%
04:00 -10°C° 0 mm 4 m/s 734 mmHg 89%
05:00 -11°C° 0 mm 5 m/s 734 mmHg 89%
06:00 -10°C° 0 mm 4 m/s 734 mmHg 90%
07:00 -10°C° 0 mm 4 m/s 735 mmHg 90%
08:00 -10°C° 0 mm 4 m/s 735 mmHg 91%
09:00 -9°C° 0 mm 4 m/s 736 mmHg 88%
10:00 -8°C° 0 mm 4 m/s 736 mmHg 85%
11:00 -7°C° 0 mm 4 m/s 737 mmHg 82%
12:00 -7°C° 0 mm 4 m/s 737 mmHg 82%
13:00 -7°C° 0 mm 4 m/s 737 mmHg 81%
14:00 -7°C° 0 mm 4 m/s 738 mmHg 80%
15:00 -7°C° 0 mm 4 m/s 738 mmHg 82%
16:00 -7°C° 0 mm 3 m/s 739 mmHg 84%
17:00 -8°C° 0 mm 3 m/s 739 mmHg 86%
18:00 -9°C° 0 mm 3 m/s 740 mmHg 89%
19:00 -9°C° 0 mm 3 m/s 740 mmHg 91%
20:00 -10°C° 0 mm 3 m/s 741 mmHg 93%
21:00 -12°C° 0 mm 3 m/s 741 mmHg 94%
22:00 -13°C° 0 mm 3 m/s 741 mmHg 94%
23:00 -14°C° 0 mm 3 m/s 742 mmHg 94%

Amanhã, 9 Março, Terça-feira

Tempo Temperatura Precipitação Vento Pressão Humidade
00:00 -14°C° 0 mm 3 m/s 742 mmHg 95%
01:00 -14°C° 0 mm 2 m/s 743 mmHg 95%
02:00 -15°C° 0 mm 2 m/s 743 mmHg 95%
03:00 -15°C° 0 mm 2 m/s 743 mmHg 95%
04:00 -16°C° 0 mm 2 m/s 744 mmHg 95%
05:00 -16°C° 0 mm 2 m/s 744 mmHg 95%
06:00 -17°C° 0 mm 3 m/s 745 mmHg 94%
07:00 -16°C° 0 mm 3 m/s 745 mmHg 93%
08:00 -16°C° 0 mm 3 m/s 746 mmHg 92%
09:00 -14°C° 0 mm 3 m/s 746 mmHg 88%
10:00 -13°C° 0 mm 3 m/s 746 mmHg 83%
11:00 -12°C° 0 mm 3 m/s 746 mmHg 79%
12:00 -10°C° 0 mm 3 m/s 746 mmHg 78%
13:00 -10°C° 0 mm 3 m/s 747 mmHg 78%
14:00 -9°C° 0 mm 3 m/s 747 mmHg 77%
15:00 -10°C° 0 mm 3 m/s 747 mmHg 80%
16:00 -10°C° 0 mm 3 m/s 747 mmHg 83%
17:00 -10°C° 0 mm 2 m/s 747 mmHg 86%
18:00 -12°C° 0 mm 2 m/s 748 mmHg 88%
19:00 -13°C° 0 mm 2 m/s 748 mmHg 89%
20:00 -12°C° 0 mm 1 m/s 749 mmHg 91%
21:00 -12°C° 0 mm 1 m/s 749 mmHg 91%
22:00 -12°C° 0 mm 1 m/s 749 mmHg 91%
23:00 -13°C° 0 mm 1 m/s 749 mmHg 91%

Depois de amanhã, 10 Março, Quarta-feira

Tempo Temperatura Precipitação Vento Pressão Humidade
00:00 -12°C° 0 mm 1 m/s 749 mmHg 91%
01:00 -12°C° 0 mm 1 m/s 749 mmHg 91%
02:00 -12°C° 0 mm 1 m/s 749 mmHg 91%
03:00 -13°C° 0 mm 2 m/s 749 mmHg 91%
04:00 -13°C° 0 mm 2 m/s 749 mmHg 91%
05:00 -12°C° 0 mm 2 m/s 749 mmHg 91%
06:00 -13°C° 0.1 mm 3 m/s 749 mmHg 92%
07:00 -12°C° 0.1 mm 3 m/s 750 mmHg 92%
08:00 -11°C° 0.1 mm 4 m/s 750 mmHg 93%
09:00 -10°C° 0.2 mm 4 m/s 750 mmHg 91%
10:00 -9°C° 0.2 mm 4 m/s 750 mmHg 90%
11:00 -7°C° 0.2 mm 3 m/s 750 mmHg 88%
12:00 -7°C° 0.3 mm 3 m/s 750 mmHg 89%
13:00 -6°C° 0.3 mm 3 m/s 750 mmHg 90%
14:00 -6°C° 0.3 mm 3 m/s 750 mmHg 91%
15:00 -7°C° 0.3 mm 3 m/s 750 mmHg 92%
16:00 -8°C° 0.3 mm 3 m/s 750 mmHg 93%
17:00 -9°C° 0.3 mm 3 m/s 750 mmHg 93%
18:00 -10°C° 0.1 mm 3 m/s 750 mmHg 93%
19:00 -13°C° 0.1 mm 3 m/s 751 mmHg 93%
20:00 -15°C° 0.1 mm 4 m/s 751 mmHg 93%
21:00 -16°C° 0 mm 4 m/s 751 mmHg 93%
22:00 -15°C° 0 mm 3 m/s 752 mmHg 93%
23:00 -16°C° 0 mm 3 m/s 752 mmHg 93%

11 Março, Quinta-feira

Tempo Temperatura Precipitação Vento Pressão Humidade
00:00 -16°C° 0 mm 3 m/s 752 mmHg 94%
01:00 -17°C° 0 mm 3 m/s 752 mmHg 94%
02:00 -18°C° 0 mm 3 m/s 753 mmHg 95%
03:00 -18°C° 0 mm 3 m/s 753 mmHg 95%
04:00 -18°C° 0 mm 3 m/s 753 mmHg 95%
05:00 -19°C° 0 mm 3 m/s 753 mmHg 95%
06:00 -19°C° 0 mm 3 m/s 753 mmHg 94%
07:00 -18°C° 0 mm 3 m/s 753 mmHg 94%
08:00 -18°C° 0 mm 3 m/s 753 mmHg 93%
09:00 -17°C° 0 mm 3 m/s 753 mmHg 92%
10:00 -15°C° 0 mm 3 m/s 753 mmHg 90%
11:00 -14°C° 0 mm 3 m/s 753 mmHg 89%
12:00 -14°C° 0 mm 4 m/s 752 mmHg 89%
13:00 -12°C° 0 mm 4 m/s 752 mmHg 89%
14:00 -11°C° 0 mm 4 m/s 752 mmHg 88%
15:00 -11°C° 0 mm 4 m/s 752 mmHg 89%
16:00 -11°C° 0 mm 4 m/s 751 mmHg 91%
17:00 -12°C° 0 mm 4 m/s 751 mmHg 92%
18:00 -12°C° 0 mm 4 m/s 751 mmHg 92%
19:00 -14°C° 0 mm 4 m/s 751 mmHg 93%
20:00 -14°C° 0 mm 4 m/s 751 mmHg 93%
21:00 -14°C° 0 mm 4 m/s 750 mmHg 94%
22:00 -15°C° 0 mm 5 m/s 750 mmHg 94%
23:00 -15°C° 0 mm 5 m/s 749 mmHg 95%

12 Março, Sexta-feira

Tempo Temperatura Precipitação Vento Pressão Humidade
00:00 -15°C° 0 mm 5 m/s 748 mmHg 93%
01:00 -15°C° 0 mm 5 m/s 748 mmHg 91%
02:00 -15°C° 0 mm 6 m/s 747 mmHg 89%
03:00 -14°C° 0 mm 6 m/s 746 mmHg 86%
04:00 -13°C° 0 mm 7 m/s 745 mmHg 82%
05:00 -12°C° 0 mm 7 m/s 744 mmHg 79%
06:00 -12°C° 0.3 mm 8 m/s 743 mmHg 83%
07:00 -11°C° 0.3 mm 9 m/s 742 mmHg 87%
08:00 -10°C° 0.3 mm 10 m/s 741 mmHg 92%
09:00 -10°C° 1.1 mm 10 m/s 740 mmHg 92%
10:00 -9°C° 1.1 mm 10 m/s 739 mmHg 92%
11:00 -9°C° 1.1 mm 10 m/s 738 mmHg 92%
12:00 -8°C° 0.7 mm 10 m/s 737 mmHg 93%
13:00 -7°C° 0.7 mm 10 m/s 737 mmHg 93%
14:00 -6°C° 0.7 mm 9 m/s 736 mmHg 93%
15:00 -5°C° 0.9 mm 9 m/s 736 mmHg 94%
16:00 -5°C° 0.9 mm 8 m/s 735 mmHg 96%
17:00 -3°C° 0.9 mm 7 m/s 735 mmHg 97%
18:00 -3°C° 1.1 mm 6 m/s 735 mmHg 97%
19:00 -1°C° 1.1 mm 5 m/s 734 mmHg 98%
20:00 -1°C° 1.1 mm 4 m/s 734 mmHg 98%
21:00 -1°C° 0.2 mm 4 m/s 734 mmHg 98%
22:00 -1°C° 0.2 mm 4 m/s 735 mmHg 98%
23:00 -1°C° 0.2 mm 5 m/s 735 mmHg 98%

13 Março, Sábado

Tempo Temperatura Precipitação Vento Pressão Humidade
00:00 -1°C° 0.4 mm 5 m/s 735 mmHg 98%
01:00 -1°C° 0.4 mm 4 m/s 735 mmHg 97%
02:00 -1°C° 0.4 mm 4 m/s 735 mmHg 97%
03:00 -1°C° 0 mm 4 m/s 736 mmHg 96%
04:00 -1°C° 0 mm 4 m/s 736 mmHg 96%
05:00 -1°C° 0 mm 4 m/s 736 mmHg 95%
06:00 -1°C° 0 mm 5 m/s 737 mmHg 94%
07:00 -1°C° 0 mm 5 m/s 737 mmHg 93%
08:00 -2°C° 0 mm 5 m/s 737 mmHg 92%
09:00 -2°C° 0.3 mm 5 m/s 738 mmHg 94%
10:00 -3°C° 0.3 mm 6 m/s 738 mmHg 97%
11:00 -3°C° 0.3 mm 6 m/s 738 mmHg 99%
12:00 -2°C° 0.3 mm 6 m/s 738 mmHg 98%
13:00 -2°C° 0.3 mm 6 m/s 739 mmHg 97%
14:00 -2°C° 0.3 mm 6 m/s 739 mmHg 96%
15:00 -1°C° 0 mm 5 m/s 739 mmHg 95%
16:00 -1°C° 0 mm 5 m/s 740 mmHg 94%
17:00 -1°C° 0 mm 4 m/s 740 mmHg 92%
18:00 -1°C° 0 mm 4 m/s 740 mmHg 92%
19:00 -1°C° 0 mm 4 m/s 741 mmHg 92%
20:00 0°C° 0 mm 3 m/s 741 mmHg 93%
21:00 0°C° 0 mm 3 m/s 741 mmHg 93%
22:00 0°C° 0 mm 3 m/s 742 mmHg 94%
23:00 -1°C° 0 mm 2 m/s 742 mmHg 95%
Mostrar mais